Weather History for Oconto, WI

Change the Weather History Date:

Thursday, September 5, 2013

  Actual Average Record
Temperature  
Mean Temperature 55 °F -  
Max Temperature 67 °F 75 °F 67 °F (2013)
Min Temperature 43 °F 49 °F 43 °F (2013)
Degree Days  
Heating Degree Days 10    
Growing Degree Days 5 (Base 50)    
Moisture  
Dew Point 47 °F    
Average Humidity 74    
Maximum Humidity 97    
Minimum Humidity 44    
Precipitation  
Precipitation 0.00 in - - ()
Sea Level Pressure  
Sea Level Pressure 30.27 in    
Wind  
Wind Speed 3 mph (ESE)    
Max Wind Speed 9 mph    
Max Gust Speed -    
Visibility 10 miles    
Events      
Averages and records for this station are not official NWS values.
T = Trace of Precipitation, MM = Missing Value Source: NWS Daily Summary

Daily Weather History Graph

Daily Weather History Graph

Search for Another Location

Airport:

Trip Planner

Search our weather history database for the weather conditions in past years. The results will help you decide how hot, cold, wet, or windy it might be!

Date:

Astronomy

Sep. 05, 2013 Rise Set
Actual Time 6:18 AM CDT 7:20 PM CDT
Civil Twilight 5:48 AM CDT 7:50 PM CDT
Nautical Twilight 5:13 AM CDT 8:26 PM CDT
Astronomical Twilight 4:35 AM CDT 9:03 PM CDT
Moon 6:32 AM CDT (9/5) 7:08 PM CDT (9/5)
Length of Visible Light 14h 01m
Length of Day
13h 01m
New Moon, 0% of the Moon is Illuminated
Sep 5
New Moon
Sep 12
First Quarter
Sep 19
Full
Sep 26
Last Quarter
Oct 4
New

Hourly Weather History & Observations

Time (CDT) Temp. Dew Point Humidity Pressure Visibility Wind Dir Wind Speed Gust Speed Precip Events Conditions
12:15 AM 51.6 °F 46.9 °F 84% 30.20 in 10.0 mi NNE 4.6 mph - N/A   Clear
12:35 AM 50.9 °F 46.4 °F 85% 30.19 in 10.0 mi Calm Calm - N/A   Clear
12:55 AM 48.4 °F 45.5 °F 90% 30.20 in 10.0 mi Calm Calm - N/A   Clear
1:15 AM 49.1 °F 46.0 °F 89% 30.20 in 10.0 mi Calm Calm - N/A   Clear
1:35 AM 49.1 °F 46.4 °F 90% 30.20 in 10.0 mi Calm Calm - N/A   Clear
1:55 AM 47.5 °F 45.7 °F 93% 30.21 in 10.0 mi Calm Calm - N/A   Clear
2:15 AM 47.3 °F 45.0 °F 92% 30.22 in 10.0 mi NNE 4.6 mph - N/A   Clear
2:35 AM 48.4 °F 44.6 °F 87% 30.22 in 10.0 mi NNE 6.9 mph - N/A   Clear
2:55 AM 48.2 °F 44.6 °F 87% 30.23 in 10.0 mi NNE 4.6 mph - N/A   Clear
3:15 AM 47.5 °F 44.4 °F 89% 30.23 in 10.0 mi NNE 4.6 mph - N/A   Clear
3:35 AM 47.3 °F 44.2 °F 89% 30.24 in 10.0 mi NNE 4.6 mph - N/A   Clear
3:55 AM 47.1 °F 44.1 °F 89% 30.24 in 10.0 mi NNE 3.5 mph - N/A   Clear
4:15 AM 46.6 °F 43.9 °F 90% 30.25 in 10.0 mi Calm Calm - N/A   Clear
4:35 AM 43.7 °F 42.6 °F 96% 30.25 in 10.0 mi Calm Calm - N/A   Clear
4:55 AM 44.1 °F 42.8 °F 95% 30.26 in 10.0 mi Calm Calm - N/A   Clear
5:15 AM 45.5 °F 43.9 °F 94% 30.26 in 10.0 mi Calm Calm - N/A   Clear
5:35 AM 43.7 °F 42.6 °F 96% 30.27 in 10.0 mi Calm Calm - N/A   Clear
5:55 AM 43.5 °F 42.3 °F 95% 30.28 in 10.0 mi Calm Calm - N/A   Clear
6:15 AM 43.2 °F 42.3 °F 97% 30.29 in 10.0 mi Calm Calm - N/A   Clear
6:35 AM 43.2 °F 42.1 °F 96% 30.30 in 10.0 mi Calm Calm - N/A   Clear
6:55 AM 43.7 °F 42.1 °F 94% 30.31 in 10.0 mi Calm Calm - N/A   Clear
7:15 AM 46.8 °F 44.8 °F 93% 30.31 in 10.0 mi NNE 3.5 mph - N/A   Clear
7:35 AM 49.3 °F 45.5 °F 87% 30.31 in 10.0 mi NNE 4.6 mph - N/A   Clear
7:55 AM 51.1 °F 46.2 °F 83% 30.31 in 10.0 mi NNE 5.8 mph - N/A   Clear
8:15 AM 52.9 °F 47.3 °F 81% 30.31 in 10.0 mi Calm Calm - N/A   Clear
8:35 AM 55.2 °F 48.4 °F 78% 30.31 in 10.0 mi Calm Calm - N/A   Clear
8:55 AM 57.6 °F 48.7 °F 72% 30.31 in 10.0 mi Calm Calm - N/A   Clear
9:15 AM 59.5 °F 48.7 °F 67% 30.32 in 10.0 mi East 4.6 mph - N/A   Clear
9:35 AM 60.4 °F 49.1 °F 66% 30.32 in 10.0 mi ENE 4.6 mph - N/A   Clear
9:55 AM 61.0 °F 46.2 °F 58% 30.32 in 10.0 mi East 6.9 mph - N/A   Clear
10:15 AM 61.0 °F 46.8 °F 59% 30.32 in 10.0 mi SE 8.1 mph - N/A   Clear
10:35 AM 61.7 °F 46.0 °F 56% 30.32 in 10.0 mi SE 9.2 mph - N/A   Clear
10:55 AM 61.7 °F 43.9 °F 52% 30.32 in 10.0 mi East 4.6 mph - N/A   Clear
11:15 AM 62.4 °F 45.7 °F 54% 30.32 in 10.0 mi East 3.5 mph - N/A   Clear
11:35 AM 62.8 °F 44.8 °F 52% 30.32 in 10.0 mi ESE 4.6 mph - N/A   Clear
11:55 AM 63.9 °F 43.9 °F 48% 30.32 in 10.0 mi ENE 4.6 mph - N/A   Clear
12:15 PM 64.4 °F 46.2 °F 52% 30.31 in 10.0 mi ENE 5.8 mph - N/A   Clear
12:35 PM 64.9 °F 45.3 °F 49% 30.31 in 10.0 mi SE 5.8 mph - N/A   Clear
12:55 PM 64.8 °F 46.4 °F 51% 30.31 in 10.0 mi ESE 4.6 mph - N/A   Clear
1:15 PM 65.5 °F 45.9 °F 49% 30.30 in 10.0 mi East 3.5 mph - N/A   Clear
1:35 PM 65.7 °F 44.1 °F 46% 30.30 in 10.0 mi SSW 5.8 mph - N/A   Clear
1:55 PM 66.6 °F 46.6 °F 49% 30.29 in 10.0 mi Calm Calm - N/A   Clear
2:15 PM 66.4 °F 46.4 °F 49% 30.29 in 10.0 mi ESE 6.9 mph - N/A   Clear
2:35 PM 66.6 °F 43.7 °F 44% 30.28 in 10.0 mi SE 6.9 mph - N/A   Clear
2:55 PM 67.3 °F 47.7 °F 49% 30.28 in 10.0 mi SE 8.1 mph - N/A   Clear
3:15 PM 66.9 °F 44.8 °F 45% 30.28 in 10.0 mi South 3.5 mph - N/A   Clear
3:35 PM 67.1 °F 47.7 °F 50% 30.27 in 10.0 mi South 5.8 mph - N/A   Clear
3:55 PM 66.9 °F 46.0 °F 47% 30.26 in 10.0 mi SSE 4.6 mph - N/A   Clear
4:15 PM 67.1 °F 48.9 °F 52% 30.26 in 10.0 mi SE 6.9 mph - N/A   Clear
4:35 PM 66.4 °F 48.4 °F 52% 30.26 in 10.0 mi East 5.8 mph - N/A   Clear
4:55 PM 66.2 °F 49.1 °F 54% 30.26 in 10.0 mi ESE 4.6 mph - N/A   Clear
5:15 PM 65.7 °F 50.2 °F 57% 30.25 in 10.0 mi East 5.8 mph - N/A   Clear
5:35 PM 65.3 °F 50.0 °F 58% 30.26 in 10.0 mi East 5.8 mph - N/A   Clear
5:55 PM 64.9 °F 50.5 °F 60% 30.25 in 10.0 mi ESE 4.6 mph - N/A   Clear
6:15 PM 64.4 °F 50.9 °F 62% 30.25 in 10.0 mi ESE 4.6 mph - N/A   Clear
6:35 PM 63.7 °F 51.4 °F 64% 30.25 in 10.0 mi Calm Calm - N/A   Clear
6:55 PM 61.9 °F 52.7 °F 72% 30.24 in 10.0 mi Calm Calm - N/A   Clear
7:15 PM 59.9 °F 52.0 °F 75% 30.25 in 10.0 mi SSE 3.5 mph - N/A   Clear
7:35 PM 58.3 °F 51.3 °F 77% 30.24 in 10.0 mi SSE 4.6 mph - N/A   Clear
7:55 PM 57.2 °F 51.1 °F 80% 30.25 in 10.0 mi SSE 3.5 mph - N/A   Clear
8:15 PM 56.7 °F 51.1 °F 82% 30.25 in 10.0 mi SSE 4.6 mph - N/A   Clear
8:35 PM 56.3 °F 51.1 °F 83% 30.25 in 10.0 mi SSE 3.5 mph - N/A   Clear
8:55 PM 57.0 °F 51.1 °F 81% 30.25 in 10.0 mi South 4.6 mph - N/A   Clear
9:15 PM 57.2 °F 51.1 °F 80% 30.24 in 10.0 mi South 3.5 mph - N/A   Clear
9:35 PM 54.9 °F 50.5 °F 85% 30.24 in 10.0 mi Calm Calm - N/A   Clear
9:55 PM 52.2 °F 50.0 °F 92% 30.24 in 10.0 mi Calm Calm - N/A   Clear
10:15 PM 50.4 °F 49.1 °F 95% 30.24 in 10.0 mi Calm Calm - N/A   Clear
10:35 PM 50.7 °F 49.3 °F 95% 30.23 in 10.0 mi Calm Calm - N/A   Clear
10:55 PM 49.6 °F 48.4 °F 95% 30.23 in 10.0 mi WSW 3.5 mph - N/A   Clear
11:15 PM 50.5 °F 48.9 °F 94% 30.22 in 10.0 mi Calm Calm - N/A   Clear
11:35 PM 50.0 °F 48.9 °F 96% 30.22 in 10.0 mi Calm Calm - N/A   Clear
11:55 PM 49.1 °F 47.8 °F 95% 30.23 in 10.0 mi Calm Calm - N/A   Clear